UAE28Y EGKK-OMDB

Flight info

Callsign UAE28Y
Flight time N/A
Altitude 37000
Route SFD Y47 BENBO L612 HAWKE UL612 VEULE DCT KOTAP DCT KETEX DCT KOTIS DCT KUKOR DCT UTUVA DCT TITVA DCT NOQAS DCT OTROT DCT RETNO DCT KOLON DCT RAPUR DCT RATAP DCT BTA DCT DOKAR DCT SUNEV DCT VELAD DCT MAMAR DCT ROTUN DCT NERAR DCT ORTAP DCT ARLOS UN4 SALUN N705 MMA P751 DASUM Y234 FYM M872 BDB Y214 RAPMA DCT KUVSO DCT KATIT DCT PEKEM M628 RIGIL G783 ELUDA G783 ASPED Q308 KIPOK Q568 IMPED
Aircraft A359/H-SDE2E3GHIJ3J4J5LM1ORWXY/LB1D1

Departure

Time 2026-05-05 11:58
Airport London Gatwick Airport (EGKK)

Arrival

Time N/A
Airport Dubai International Airport (OMDB)
Time Latitude Longitude Altitude Speed Heading
2026-05-05 11:17 51.15924 -0.17959 215 ft 0 kts 78°
2026-05-05 11:40 51.15921 -0.17983 219 ft 4 kts 78°
2026-05-05 11:40 51.15915 -0.18025 218 ft 4 kts 83°
2026-05-05 11:40 51.15915 -0.18066 216 ft 4 kts 108°
2026-05-05 11:41 51.15922 -0.18091 221 ft 4 kts 133°
2026-05-05 11:41 51.15943 -0.18113 222 ft 3 kts 167°
2026-05-05 11:41 51.15950 -0.18116 222 ft 0 kts 168°
2026-05-05 11:47 51.15947 -0.18115 222 ft 4 kts 168°
2026-05-05 11:47 51.15900 -0.18099 218 ft 8 kts 168°
2026-05-05 11:47 51.15839 -0.18077 218 ft 10 kts 167°
2026-05-05 11:48 51.15695 -0.18078 219 ft 11 kts 231°
2026-05-05 11:48 51.15667 -0.18199 219 ft 12 kts 256°
2026-05-05 11:48 51.15632 -0.18325 219 ft 13 kts 218°
2026-05-05 11:49 51.15544 -0.18330 215 ft 14 kts 169°
2026-05-05 11:49 51.15447 -0.18295 217 ft 15 kts 166°
2026-05-05 11:49 51.15343 -0.18256 220 ft 16 kts 168°
2026-05-05 11:49 51.15231 -0.18229 220 ft 16 kts 189°
2026-05-05 11:50 51.15183 -0.18350 219 ft 13 kts 257°
2026-05-05 11:50 51.15159 -0.18502 218 ft 14 kts 260°
2026-05-05 11:50 51.15139 -0.18662 211 ft 15 kts 258°
2026-05-05 11:50 51.15116 -0.18839 218 ft 17 kts 258°
2026-05-05 11:51 51.15088 -0.19027 219 ft 18 kts 256°
2026-05-05 11:51 51.15059 -0.19226 210 ft 19 kts 258°
2026-05-05 11:51 51.15033 -0.19435 215 ft 19 kts 257°
2026-05-05 11:51 51.15000 -0.19655 219 ft 21 kts 258°
2026-05-05 11:52 51.14990 -0.19725 213 ft 0 kts 258°
2026-05-05 11:53 51.14987 -0.19749 214 ft 16 kts 258°
2026-05-05 11:53 51.14953 -0.20008 218 ft 10 kts 258°
2026-05-05 11:53 51.14922 -0.20118 218 ft 11 kts 219°
2026-05-05 11:53 51.14854 -0.20171 220 ft 11 kts 227°
2026-05-05 11:54 51.14824 -0.20296 218 ft 12 kts 259°
2026-05-05 11:54 51.14807 -0.20437 215 ft 13 kts 259°
2026-05-05 11:54 51.14790 -0.20546 215 ft 7 kts 255°
2026-05-05 11:54 51.14776 -0.20636 209 ft 10 kts 256°
2026-05-05 11:55 51.14757 -0.20751 212 ft 12 kts 255°
2026-05-05 11:55 51.14737 -0.20882 218 ft 12 kts 258°
2026-05-05 11:55 51.14722 -0.20998 218 ft 7 kts 260°
2026-05-05 11:55 51.14713 -0.21084 219 ft 9 kts 260°
2026-05-05 11:56 51.14701 -0.21191 216 ft 11 kts 258°
2026-05-05 11:56 51.14673 -0.21298 221 ft 10 kts 215°
2026-05-05 11:56 51.14600 -0.21316 212 ft 12 kts 171°
2026-05-05 11:56 51.14529 -0.21238 220 ft 14 kts 121°
2026-05-05 11:57 51.14529 -0.21110 221 ft 11 kts 77°
2026-05-05 11:57 51.14572 -0.20789 218 ft 60 kts 78°
2026-05-05 11:57 51.14704 -0.19847 215 ft 115 kts 77°
2026-05-05 11:57 51.14924 -0.18359 245 ft 156 kts 66°
2026-05-05 11:58 51.15201 -0.16728 883 ft 150 kts 75°
2026-05-05 11:58 51.15426 -0.15055 1398 ft 163 kts 76°
2026-05-05 11:58 51.15665 -0.13168 1785 ft 179 kts 75°
2026-05-05 11:58 51.15920 -0.11189 2085 ft 196 kts 74°
2026-05-05 11:59 51.16223 -0.08935 2282 ft 219 kts 76°
2026-05-05 11:59 51.16184 -0.06404 2500 ft 245 kts 107°
2026-05-05 11:59 51.15117 -0.04219 2967 ft 262 kts 144°
2026-05-05 11:59 51.13370 -0.03335 3571 ft 270 kts 175°
2026-05-05 12:00 51.11491 -0.03242 4323 ft 269 kts 176°
2026-05-05 12:00 51.09626 -0.03043 5056 ft 268 kts 172°
2026-05-05 12:00 51.07789 -0.02576 5755 ft 268 kts 165°
2026-05-05 12:00 51.06045 -0.01857 6364 ft 270 kts 163°
2026-05-05 12:01 51.04230 -0.01034 6943 ft 273 kts 162°
2026-05-05 12:01 51.02395 -0.00176 7501 ft 277 kts 162°
2026-05-05 12:01 51.00536 0.00701 8099 ft 280 kts 163°
2026-05-05 12:01 50.99295 0.01285 8488 ft 282 kts 163°